When you browse on this site, cookies collect data to enhance your experience and personalize the content and advertising you see.
Visit our Privacy Policy to learn more. By continuing to use the site, you agree to this use of cookies and data.
  • In Germany
  • List of Countries
  • For 7 days
  • Water Temperature
  • Weather Map
  • Weather Widgets
  • user-avatar
    Login

    Hourly Weather Lesniakowizna

    Today, 31 May, Sunday

    Time Temperature Precipitation Wind Pressure Humidity
    00:00 +11°C° 1.9 mm 9 mps 748 mmHg 89%
    01:00 +11°C° 1.9 mm 8 mps 748 mmHg 87%
    02:00 +11°C° 0 mm 8 mps 748 mmHg 85%
    03:00 +11°C° 0 mm 8 mps 748 mmHg 83%
    04:00 +11°C° 0 mm 8 mps 748 mmHg 81%
    05:00 +11°C° 0 mm 8 mps 748 mmHg 78%
    06:00 +12°C° 0 mm 8 mps 748 mmHg 76%
    07:00 +12°C° 0 mm 8 mps 749 mmHg 74%
    08:00 +13°C° 0 mm 8 mps 749 mmHg 72%
    09:00 +15°C° 0 mm 8 mps 750 mmHg 71%
    10:00 +15°C° 0 mm 8 mps 750 mmHg 69%
    11:00 +16°C° 0 mm 8 mps 751 mmHg 69%
    12:00 +16°C° 0 mm 8 mps 751 mmHg 69%
    13:00 +16°C° 0 mm 8 mps 752 mmHg 69%
    14:00 +16°C° 0 mm 7 mps 752 mmHg 68%
    15:00 +17°C° 0 mm 7 mps 752 mmHg 68%
    16:00 +17°C° 0 mm 7 mps 753 mmHg 68%
    17:00 +16°C° 0 mm 6 mps 753 mmHg 70%
    18:00 +16°C° 0 mm 6 mps 753 mmHg 72%
    19:00 +15°C° 0 mm 5 mps 753 mmHg 73%
    20:00 +14°C° 0 mm 5 mps 754 mmHg 72%
    21:00 +13°C° 0 mm 5 mps 754 mmHg 71%
    22:00 +12°C° 0 mm 5 mps 755 mmHg 70%
    23:00 +10°C° 0 mm 5 mps 755 mmHg 69%

    Tomorrow, 1 June, Monday

    Time Temperature Precipitation Wind Pressure Humidity
    00:00 +10°C° 0 mm 5 mps 755 mmHg 68%
    01:00 +10°C° 0 mm 4 mps 756 mmHg 67%
    02:00 +8°C° 0 mm 4 mps 756 mmHg 69%
    03:00 +8°C° 0 mm 4 mps 756 mmHg 70%
    04:00 +7°C° 0 mm 4 mps 756 mmHg 72%
    05:00 +9°C° 0 mm 5 mps 756 mmHg 69%
    06:00 +10°C° 0 mm 5 mps 757 mmHg 67%
    07:00 +12°C° 0 mm 5 mps 757 mmHg 64%
    08:00 +13°C° 0 mm 6 mps 757 mmHg 61%
    09:00 +14°C° 0 mm 6 mps 757 mmHg 58%
    10:00 +15°C° 0 mm 6 mps 757 mmHg 55%
    11:00 +15°C° 0 mm 6 mps 757 mmHg 53%
    12:00 +16°C° 0 mm 6 mps 757 mmHg 52%
    13:00 +16°C° 0 mm 6 mps 757 mmHg 51%
    14:00 +16°C° 0 mm 6 mps 757 mmHg 51%
    15:00 +16°C° 0 mm 6 mps 757 mmHg 51%
    16:00 +16°C° 0 mm 6 mps 757 mmHg 52%
    17:00 +15°C° 0 mm 5 mps 757 mmHg 58%
    18:00 +14°C° 0 mm 4 mps 756 mmHg 64%
    19:00 +13°C° 0 mm 4 mps 756 mmHg 71%
    20:00 +12°C° 0 mm 4 mps 756 mmHg 74%
    21:00 +11°C° 0 mm 3 mps 756 mmHg 78%
    22:00 +10°C° 0 mm 3 mps 756 mmHg 82%
    23:00 +10°C° 0.2 mm 3 mps 756 mmHg 84%

    Day after tomorrow, 2 June, Tuesday

    Time Temperature Precipitation Wind Pressure Humidity
    00:00 +10°C° 0.2 mm 3 mps 756 mmHg 86%
    01:00 +10°C° 0.2 mm 3 mps 755 mmHg 89%
    02:00 +10°C° 0.3 mm 3 mps 755 mmHg 90%
    03:00 +10°C° 0.3 mm 2 mps 755 mmHg 92%
    04:00 +9°C° 0.3 mm 2 mps 755 mmHg 94%
    05:00 +10°C° 0.1 mm 3 mps 755 mmHg 88%
    06:00 +11°C° 0.1 mm 3 mps 754 mmHg 82%
    07:00 +13°C° 0.1 mm 4 mps 754 mmHg 76%
    08:00 +13°C° 0.2 mm 4 mps 754 mmHg 71%
    09:00 +14°C° 0.2 mm 4 mps 754 mmHg 66%
    10:00 +15°C° 0.2 mm 5 mps 753 mmHg 60%
    11:00 +17°C° 0.2 mm 4 mps 753 mmHg 58%
    12:00 +17°C° 0.2 mm 4 mps 753 mmHg 56%
    13:00 +18°C° 0.2 mm 4 mps 752 mmHg 54%
    14:00 +18°C° 0.1 mm 4 mps 752 mmHg 53%
    15:00 +18°C° 0.1 mm 4 mps 751 mmHg 52%
    16:00 +18°C° 0.1 mm 4 mps 751 mmHg 51%
    17:00 +17°C° 0 mm 3 mps 750 mmHg 58%
    18:00 +16°C° 0 mm 3 mps 750 mmHg 64%
    19:00 +13°C° 0 mm 3 mps 750 mmHg 70%
    20:00 +13°C° 0 mm 2 mps 750 mmHg 73%
    21:00 +12°C° 0 mm 2 mps 750 mmHg 76%
    22:00 +10°C° 0 mm 2 mps 750 mmHg 79%
    23:00 +9°C° 0 mm 2 mps 749 mmHg 81%

    3 June, Wednesday

    Time Temperature Precipitation Wind Pressure Humidity
    00:00 +9°C° 0 mm 2 mps 749 mmHg 84%
    01:00 +8°C° 0 mm 3 mps 749 mmHg 87%
    02:00 +8°C° 0 mm 3 mps 748 mmHg 87%
    03:00 +8°C° 0 mm 3 mps 748 mmHg 88%
    04:00 +7°C° 0 mm 3 mps 748 mmHg 88%
    05:00 +9°C° 0 mm 3 mps 748 mmHg 81%
    06:00 +11°C° 0 mm 4 mps 748 mmHg 75%
    07:00 +12°C° 0 mm 4 mps 747 mmHg 68%
    08:00 +13°C° 0 mm 4 mps 747 mmHg 66%
    09:00 +13°C° 0 mm 5 mps 747 mmHg 64%
    10:00 +14°C° 0 mm 6 mps 747 mmHg 63%
    11:00 +13°C° 0 mm 5 mps 747 mmHg 67%
    12:00 +13°C° 0 mm 5 mps 747 mmHg 72%
    13:00 +12°C° 0 mm 4 mps 746 mmHg 77%
    14:00 +12°C° 0.1 mm 4 mps 746 mmHg 79%
    15:00 +12°C° 0.1 mm 4 mps 746 mmHg 81%
    16:00 +12°C° 0.1 mm 3 mps 746 mmHg 84%
    17:00 +11°C° 0 mm 3 mps 746 mmHg 86%
    18:00 +11°C° 0 mm 3 mps 746 mmHg 87%
    19:00 +11°C° 0 mm 3 mps 746 mmHg 89%
    20:00 +10°C° 0 mm 3 mps 746 mmHg 90%
    21:00 +10°C° 0 mm 3 mps 746 mmHg 91%
    22:00 +10°C° 0 mm 3 mps 747 mmHg 92%
    23:00 +9°C° 0 mm 3 mps 747 mmHg 93%

    4 June, Thursday

    Time Temperature Precipitation Wind Pressure Humidity
    00:00 +9°C° 0 mm 3 mps 746 mmHg 94%
    01:00 +9°C° 0 mm 3 mps 746 mmHg 95%
    02:00 +8°C° 0 mm 3 mps 746 mmHg 96%
    03:00 +8°C° 0 mm 3 mps 746 mmHg 96%
    04:00 +8°C° 0 mm 3 mps 746 mmHg 97%
    05:00 +9°C° 0 mm 3 mps 746 mmHg 93%
    06:00 +10°C° 0 mm 3 mps 747 mmHg 89%
    07:00 +12°C° 0 mm 3 mps 747 mmHg 86%
    08:00 +13°C° 0.2 mm 3 mps 747 mmHg 81%
    09:00 +14°C° 0.2 mm 4 mps 747 mmHg 76%
    10:00 +17°C° 0.2 mm 4 mps 747 mmHg 71%
    11:00 +17°C° 0.6 mm 4 mps 747 mmHg 69%
    12:00 +18°C° 0.6 mm 4 mps 746 mmHg 66%
    13:00 +19°C° 0.6 mm 5 mps 746 mmHg 64%
    14:00 +19°C° 0.4 mm 4 mps 746 mmHg 64%
    15:00 +19°C° 0.4 mm 4 mps 746 mmHg 64%
    16:00 +19°C° 0.4 mm 4 mps 746 mmHg 63%
    17:00 +18°C° 0.4 mm 4 mps 746 mmHg 68%
    18:00 +17°C° 0.4 mm 3 mps 746 mmHg 73%
    19:00 +16°C° 0.4 mm 3 mps 746 mmHg 78%
    20:00 +15°C° 0.1 mm 2 mps 746 mmHg 81%
    21:00 +14°C° 0.1 mm 2 mps 746 mmHg 83%
    22:00 +13°C° 0.1 mm 1 mps 747 mmHg 86%
    23:00 +12°C° 0 mm 1 mps 747 mmHg 88%

    5 June, Friday

    Time Temperature Precipitation Wind Pressure Humidity
    00:00 +12°C° 0 mm 1 mps 746 mmHg 89%
    01:00 +12°C° 0 mm 1 mps 746 mmHg 90%
    02:00 +12°C° 0 mm 1 mps 746 mmHg 90%
    03:00 +11°C° 0 mm 1 mps 746 mmHg 91%
    04:00 +11°C° 0 mm 1 mps 746 mmHg 91%
    05:00 +13°C° 0 mm 1 mps 746 mmHg 85%
    06:00 +15°C° 0 mm 2 mps 746 mmHg 79%
    07:00 +17°C° 0 mm 2 mps 746 mmHg 73%
    08:00 +18°C° 0 mm 2 mps 746 mmHg 66%
    09:00 +19°C° 0 mm 2 mps 746 mmHg 58%
    10:00 +21°C° 0 mm 2 mps 746 mmHg 51%
    11:00 +21°C° 0.1 mm 3 mps 746 mmHg 52%
    12:00 +21°C° 0.1 mm 3 mps 746 mmHg 54%
    13:00 +21°C° 0.1 mm 3 mps 745 mmHg 55%
    14:00 +21°C° 0.1 mm 3 mps 745 mmHg 57%
    15:00 +21°C° 0.1 mm 3 mps 745 mmHg 59%
    16:00 +21°C° 0.1 mm 2 mps 744 mmHg 61%
    17:00 +20°C° 0 mm 3 mps 744 mmHg 65%
    18:00 +19°C° 0 mm 3 mps 744 mmHg 69%
    19:00 +19°C° 0 mm 3 mps 743 mmHg 73%
    20:00 +18°C° 0 mm 4 mps 743 mmHg 73%
    21:00 +18°C° 0 mm 4 mps 743 mmHg 74%
    22:00 +17°C° 0 mm 4 mps 743 mmHg 74%
    23:00 +17°C° 0 mm 4 mps 743 mmHg 75%
    Show more